FW8967 Weather Reports


time (UTC)temp
F
wind
direction
speed
knots
gust
knots
rain 1hr
in
rain 24hr
in
rain mn
in
humidity
%
barometer
mb
20260510161552 76 164 2.6 7.0 0.00 0.00 0.00 42 1015.1
20260510160049 75 0 0.9 7.0 0.00 0.00 0.00 45 1015.2
20260510154555 75 287 1.7 5.2 0.00 0.00 0.00 44 1015.2
20260510153050 75 225 1.7 7.0 0.00 0.00 0.00 43 1015.3
20260510151552 75 216 0.0 7.8 0.00 0.00 0.00 47 1015.3
20260510150114 74 0 0.9 6.1 0.00 0.00 0.00 46 1015.3
20260510144607 73 0 1.7 7.0 0.00 0.00 0.00 47 1015.2
20260510143056 73 237 0.9 5.2 0.00 0.00 0.00 47 1015.2
20260510141550 73 100 0.9 3.5 0.00 0.00 0.00 47 1015.1
20260510140050 72 271 1.7 5.2 0.00 0.00 0.00 50 1015.5
20260510134555 71 272 0.9 6.1 0.00 0.00 0.00 50 1015.5
20260510133049 70 0 0.9 6.1 0.00 0.00 0.00 53 1015.5
20260510131548 68 266 1.7 8.7 0.00 0.00 0.00 53 1015.3
20260510130050 67 217 1.7 7.8 0.00 0.00 0.00 56 1015.1
20260510124549 65 326 1.7 6.1 0.00 0.00 0.00 60 1015.0
20260510123048 62 0 0.0 2.6 0.00 0.00 0.00 70 1014.9
20260510121547 57 0 0.0 1.7 0.00 0.00 0.00 79 1014.7
20260510120048 54 0 0.0 0.0 0.00 0.00 0.00 83 1014.9
20260510114609 51 0 0.0 0.0 0.00 0.00 0.00 86 1014.6
20260510113056 50 0 0.0 0.0 0.00 0.00 0.00 88 1014.4
20260510111548 49 0 0.0 0.0 0.00 0.00 0.00 89 1014.2
20260510110047 48 0 0.0 0.0 0.00 0.00 0.00 89 1014.0
20260510104555 47 0 0.0 0.0 0.00 0.00 0.00 89 1013.8
20260510103051 48 0 0.0 0.0 0.00 0.00 0.00 89 1013.6
20260510101552 48 0 0.0 0.0 0.00 0.00 0.00 88 1013.4
20260510100101 48 0 0.0 0.9 0.00 0.00 0.00 87 1013.3
20260510094600 49 0 0.0 3.5 0.00 0.00 0.00 85 1013.3
20260510093053 49 0 0.0 1.7 0.00 0.00 0.00 87 1013.0
20260510091550 48 0 0.0 3.5 0.00 0.00 0.00 87 1012.9
20260510090053 48 0 0.0 0.0 0.00 0.00 0.00 86 1012.8
20260510084549 49 0 0.0 0.0 0.00 0.00 0.00 84 1012.8
20260510083054 50 0 0.0 0.0 0.00 0.00 0.00 83 1012.7
20260510081550 50 0 0.0 1.7 0.00 0.00 0.00 84 1012.7
20260510080050 49 0 0.0 0.0 0.00 0.00 0.00 86 1012.3
20260510074546 49 0 0.0 1.7 0.00 0.00 0.00 86 1012.0
20260510073049 48 0 0.0 0.0 0.00 0.00 0.00 86 1011.9
20260510071549 49 0 0.0 0.0 0.00 0.00 0.00 86 1011.9
20260510070107 49 0 0.0 0.0 0.00 0.00 0.00 85 1011.8
20260510064555 49 0 0.0 0.0 0.00 0.00 0.00 85 1011.8
20260510063045 49 0 0.0 0.0 0.00 0.00 0.00 84 1012.0
20260510061550 50 0 0.0 0.0 0.00 0.00 0.00 84 1012.0
20260510060051 50 0 0.0 0.0 0.00 0.00 0.00 83 1012.1
20260510054601 51 0 0.0 0.0 0.00 0.00 0.00 81 1012.2
20260510053048 51 0 0.0 0.0 0.00 0.00 0.00 81 1012.1
20260510051547 51 0 0.0 0.0 0.00 0.00 0.00 80 1012.1
20260510050051 51 0 0.0 0.0 0.00 0.00 0.00 80 1012.1
20260510044551 52 0 0.0 0.0 0.00 0.00 0.00 79 1012.3
20260510043050 52 0 0.0 0.0 0.00 0.00 0.00 78 1012.2
20260510041555 53 0 0.0 0.0 0.00 0.00 0.00 77 1012.2
20260510040052 53 0 0.0 0.0 0.00 0.00 0.00 76 1012.2
20260510034549 53 0 0.0 0.0 0.00 0.00 0.00 76 1012.3
20260510033107 54 0 0.0 0.0 0.00 0.00 0.00 74 1012.1
20260510031549 54 0 0.0 0.0 0.00 0.00 0.00 74 1012.0
20260510030049 54 0 0.0 0.0 0.00 0.00 0.00 74 1011.9
20260510024550 55 0 0.0 0.0 0.00 0.00 0.00 73 1011.8
20260510023048 55 0 0.0 0.0 0.00 0.00 0.00 72 1011.8
20260510021549 56 0 0.0 0.0 0.00 0.00 0.00 71 1011.5
20260510020049 57 0 0.0 0.0 0.00 0.00 0.00 70 1011.2
20260510014551 57 0 0.0 0.0 0.00 0.00 0.00 68 1011.2
20260510013048 58 0 0.0 0.0 0.00 0.00 0.00 66 1010.8
20260510011549 59 0 0.0 0.0 0.00 0.00 0.00 64 1010.5
20260510010059 60 0 0.0 0.0 0.00 0.00 0.00 62 1010.3
20260510004556 62 0 0.0 1.7 0.00 0.00 0.00 59 1010.1
20260510003058 63 0 0.0 0.0 0.00 0.00 0.00 57 1010.1
20260510001547 65 0 0.0 0.0 0.00 0.00 0.00 52 1010.1
20260510000057 68 0 0.0 2.6 0.00 0.00 0.00 50 1009.8
20260509234605 70 0 0.0 8.7 0.00 0.00 0.00 44 1009.5
20260509233049 72 0 0.0 1.7 0.00 0.00 0.00 43 1009.3
20260509231552 73 257 1.7 6.1 0.00 0.00 0.00 39 1009.3
20260509230047 73 274 1.7 7.0 0.00 0.00 0.00 39 1009.0
20260509224553 73 296 2.6 5.2 0.00 0.00 0.00 39 1009.0
20260509223057 72 282 0.0 6.1 0.00 0.00 0.00 42 1009.0
20260509221552 73 264 1.7 7.0 0.00 0.00 0.00 42 1009.0
20260509220059 73 0 0.0 5.2 0.00 0.00 0.00 43 1008.9
20260509214548 73 259 0.9 4.3 0.00 0.00 0.00 42 1008.8
20260509213050 74 0 1.7 7.8 0.00 0.00 0.00 40 1008.7
20260509211550 75 349 1.7 5.2 0.00 0.00 0.00 39 1008.5
20260509210051 75 281 1.7 7.8 0.00 0.00 0.00 37 1008.5
20260509204558 75 313 2.6 7.8 0.00 0.00 0.00 37 1008.3
20260509203052 75 0 1.7 8.7 0.00 0.00 0.00 39 1008.2
20260509201548 74 267 0.0 7.8 0.00 0.00 0.00 41 1008.3
20260509200054 74 278 1.7 7.0 0.00 0.00 0.00 40 1008.3
20260509194556 74 127 0.9 7.8 0.00 0.00 0.00 42 1008.3
20260509193047 74 266 2.6 8.7 0.00 0.00 0.00 40 1008.3
20260509191555 73 269 0.0 4.3 0.00 0.00 0.00 42 1008.4
20260509190052 75 248 1.7 7.8 0.00 0.00 0.00 39 1008.6
20260509184547 74 123 0.9 7.0 0.00 0.00 0.00 42 1008.5
20260509183049 73 243 0.9 3.5 0.00 0.00 0.00 43 1008.8
20260509181555 73 0 0.0 1.7 0.00 0.00 0.00 48 1009.0
20260509180049 73 139 1.7 5.2 0.00 0.00 0.00 47 1009.1
20260509174556 72 104 0.9 3.5 0.00 0.00 0.00 49 1009.3
20260509173059 70 278 0.9 4.3 0.00 0.00 0.00 51 1009.5
20260509171558 71 0 0.0 0.9 0.00 0.00 0.00 52 1009.6
20260509170055 69 0 0.9 2.6 0.00 0.00 0.00 56 1009.8
20260509164551 69 0 0.0 3.5 0.00 0.00 0.00 56 1010.0
20260509163055 70 148 0.9 3.5 0.00 0.00 0.00 55 1010.1